Time,TemperatureF,DewpointF,PressureIn,WindDirection,WindDirectionDegrees,WindSpeedMPH,WindSpeedGustMPH,Humidity,HourlyPrecipIn,Conditions,Clouds,dailyrainin,SoftwareType,DateUTC
2013-08-09 00:01:00,71.3,65.5,30.10,NNE,23,0.2,1.8,82,0.00,,,0.00,WUHU216HW,2013-08-09 05:01:00,
2013-08-09 00:06:00,71.3,65.5,30.10,NE,45,0.2,1.8,82,0.00,,,0.00,WUHU216HW,2013-08-09 05:06:00,
2013-08-09 00:11:00,71.3,65.5,30.10,South,180,0.9,1.6,82,0.00,,,0.00,WUHU216HW,2013-08-09 05:11:00,
2013-08-09 00:16:00,71.1,65.4,30.10,SSE,158,0.4,1.1,82,0.00,,,0.00,WUHU216HW,2013-08-09 05:16:00,
2013-08-09 00:21:00,71.1,65.4,30.10,East,90,0.0,1.1,82,0.00,,,0.00,WUHU216HW,2013-08-09 05:21:00,
2013-08-09 00:26:00,71.1,65.4,30.09,East,90,0.0,1.1,82,0.00,,,0.00,WUHU216HW,2013-08-09 05:26:00,
2013-08-09 00:31:00,71.1,65.4,30.09,East,90,0.0,0.7,82,0.00,,,0.00,WUHU216HW,2013-08-09 05:31:00,
2013-08-09 00:36:00,71.1,65.0,30.09,ENE,68,0.2,1.1,81,0.00,,,0.00,WUHU216HW,2013-08-09 05:36:00,
2013-08-09 00:41:00,71.1,65.4,30.09,South,180,0.0,1.1,82,0.00,,,0.00,WUHU216HW,2013-08-09 05:41:00,
2013-08-09 00:46:00,71.1,65.4,30.10,North,0,0.9,1.1,82,0.00,,,0.00,WUHU216HW,2013-08-09 05:46:00,
2013-08-09 00:51:00,71.1,65.4,30.09,ESE,113,0.0,1.3,82,0.00,,,0.00,WUHU216HW,2013-08-09 05:51:00,
2013-08-09 00:56:00,71.1,65.4,30.09,ESE,113,0.2,1.3,82,0.00,,,0.00,WUHU216HW,2013-08-09 05:56:00,
2013-08-09 01:01:00,71.1,65.4,30.09,ESE,113,1.8,1.8,82,0.00,,,0.00,WUHU216HW,2013-08-09 06:01:00,
2013-08-09 01:06:00,71.1,65.4,30.09,East,90,0.9,1.8,82,0.00,,,0.00,WUHU216HW,2013-08-09 06:06:00,
2013-08-09 01:11:00,70.9,65.2,30.09,SE,135,0.7,2.7,82,0.00,,,0.00,WUHU216HW,2013-08-09 06:11:00,
2013-08-09 01:16:00,70.9,65.2,30.09,East,90,0.9,2.7,82,0.00,,,0.00,WUHU216HW,2013-08-09 06:16:00,
2013-08-09 01:21:00,70.9,65.2,30.09,East,90,0.0,2.5,82,0.00,,,0.00,WUHU216HW,2013-08-09 06:21:00,
2013-08-09 01:26:00,70.9,65.2,30.08,ENE,68,0.7,2.5,82,0.00,,,0.00,WUHU216HW,2013-08-09 06:26:00,
2013-08-09 01:31:00,70.9,65.2,30.09,East,90,1.1,2.0,82,0.00,,,0.00,WUHU216HW,2013-08-09 06:31:00,
2013-08-09 01:36:00,70.9,65.2,30.09,NE,45,1.1,2.0,82,0.00,,,0.00,WUHU216HW,2013-08-09 06:36:00,
2013-08-09 01:41:00,70.9,64.8,30.09,NE,45,0.0,1.1,81,0.00,,,0.00,WUHU216HW,2013-08-09 06:41:00,
2013-08-09 01:46:00,70.9,65.2,30.09,NNE,23,0.7,0.7,82,0.00,,,0.00,WUHU216HW,2013-08-09 06:46:00,
2013-08-09 01:51:00,70.9,65.2,30.09,NNE,23,0.7,0.7,82,0.00,,,0.00,WUHU216HW,2013-08-09 06:51:00,
2013-08-09 01:56:00,70.9,65.2,30.09,North,0,0.0,1.8,82,0.00,,,0.00,WUHU216HW,2013-08-09 06:56:00,
2013-08-09 02:01:00,70.9,65.2,30.09,NNE,23,0.0,1.8,82,0.00,,,0.00,WUHU216HW,2013-08-09 07:01:00,
2013-08-09 02:06:00,70.9,65.2,30.09,ESE,113,0.0,0.9,82,0.00,,,0.00,WUHU216HW,2013-08-09 07:06:00,
2013-08-09 02:11:00,70.7,65.0,30.09,ESE,113,0.4,1.1,82,0.00,,,0.00,WUHU216HW,2013-08-09 07:11:00,
2013-08-09 02:16:00,70.7,65.0,30.10,ESE,113,0.0,1.1,82,0.00,,,0.00,WUHU216HW,2013-08-09 07:16:00,
2013-08-09 02:21:00,70.7,65.0,30.10,ESE,113,0.0,0.4,82,0.00,,,0.00,WUHU216HW,2013-08-09 07:21:00,
2013-08-09 02:26:00,70.7,65.0,30.10,ESE,113,0.0,0.0,82,0.00,,,0.00,WUHU216HW,2013-08-09 07:26:00,
2013-08-09 02:31:00,70.7,65.0,30.09,ESE,113,0.0,0.0,82,0.00,,,0.00,WUHU216HW,2013-08-09 07:31:00,
2013-08-09 02:36:00,70.6,64.8,30.09,ESE,113,0.0,0.0,82,0.00,,,0.00,WUHU216HW,2013-08-09 07:36:00,
2013-08-09 02:41:00,70.6,64.8,30.09,ESE,113,0.0,0.0,82,0.00,,,0.00,WUHU216HW,2013-08-09 07:41:00,
2013-08-09 02:46:00,70.6,64.8,30.09,ESE,113,0.0,0.0,82,0.00,,,0.00,WUHU216HW,2013-08-09 07:46:00,
2013-08-09 02:51:00,70.6,64.8,30.09,East,90,0.0,0.9,82,0.00,,,0.00,WUHU216HW,2013-08-09 07:51:00,
2013-08-09 02:56:00,70.6,64.8,30.08,East,90,0.0,0.9,82,0.00,,,0.00,WUHU216HW,2013-08-09 07:56:00,
2013-08-09 03:01:00,70.6,64.8,30.08,East,90,0.0,0.4,82,0.00,,,0.00,WUHU216HW,2013-08-09 08:01:00,
2013-08-09 03:06:00,70.6,64.8,30.08,NE,45,0.4,0.4,82,0.00,,,0.00,WUHU216HW,2013-08-09 08:06:00,
2013-08-09 03:11:00,70.6,64.8,30.09,NE,45,0.0,0.4,82,0.00,,,0.00,WUHU216HW,2013-08-09 08:11:00,
2013-08-09 03:16:00,70.4,64.6,30.08,NE,45,0.0,0.7,82,0.00,,,0.00,WUHU216HW,2013-08-09 08:16:00,
2013-08-09 03:21:00,70.4,64.6,30.09,NE,45,0.0,0.7,82,0.00,,,0.00,WUHU216HW,2013-08-09 08:21:00,
2013-08-09 03:26:00,70.6,64.8,30.08,NNE,23,0.2,0.2,82,0.00,,,0.00,WUHU216HW,2013-08-09 08:26:00,
2013-08-09 03:31:00,70.4,64.6,30.08,NNE,23,0.0,0.2,82,0.00,,,0.00,WUHU216HW,2013-08-09 08:31:00,
2013-08-09 03:36:00,70.2,64.5,30.08,NNE,23,0.4,0.7,82,0.00,,,0.00,WUHU216HW,2013-08-09 08:36:00,
2013-08-09 03:41:00,70.2,64.5,30.08,North,0,0.0,1.1,82,0.00,,,0.00,WUHU216HW,2013-08-09 08:41:00,
2013-08-09 03:46:00,70.2,64.5,30.09,North,0,0.2,1.1,82,0.00,,,0.00,WUHU216HW,2013-08-09 08:46:00,
2013-08-09 03:51:00,70.2,64.5,30.09,North,0,0.0,0.4,82,0.00,,,0.00,WUHU216HW,2013-08-09 08:51:00,
2013-08-09 03:56:00,70.2,64.5,30.09,North,0,0.0,0.2,82,0.00,,,0.00,WUHU216HW,2013-08-09 08:56:00,
2013-08-09 04:01:00,70.2,64.5,30.09,North,0,0.0,0.2,82,0.00,,,0.00,WUHU216HW,2013-08-09 09:01:00,
2013-08-09 04:06:00,70.2,64.5,30.10,North,0,0.0,0.0,82,0.00,,,0.00,WUHU216HW,2013-08-09 09:06:00,
2013-08-09 04:11:00,70.2,64.5,30.09,North,0,0.0,0.0,82,0.00,,,0.00,WUHU216HW,2013-08-09 09:11:00,
2013-08-09 04:16:00,70.2,64.5,30.09,North,0,0.0,0.0,82,0.00,,,0.00,WUHU216HW,2013-08-09 09:16:00,
2013-08-09 04:21:00,70.2,64.7,30.09,North,0,0.0,0.0,83,0.00,,,0.00,WUHU216HW,2013-08-09 09:21:00,
2013-08-09 04:26:00,70.2,64.7,30.09,North,0,0.0,0.0,83,0.00,,,0.00,WUHU216HW,2013-08-09 09:26:00,
2013-08-09 04:32:00,70.2,64.7,30.09,North,0,0.0,0.0,83,0.00,,,0.00,WUHU216HW,2013-08-09 09:32:00,
2013-08-09 04:37:00,70.2,64.7,30.09,ENE,68,0.4,0.4,83,0.00,,,0.00,WUHU216HW,2013-08-09 09:37:00,
2013-08-09 04:42:00,70.0,64.5,30.09,East,90,0.4,1.1,83,0.00,,,0.00,WUHU216HW,2013-08-09 09:42:00,
2013-08-09 04:47:00,70.0,64.5,30.09,East,90,0.7,1.1,83,0.00,,,0.00,WUHU216HW,2013-08-09 09:47:00,
2013-08-09 04:52:00,70.0,64.5,30.09,East,90,0.0,0.9,83,0.00,,,0.00,WUHU216HW,2013-08-09 09:52:00,
2013-08-09 04:57:00,70.0,64.5,30.09,East,90,0.0,0.7,83,0.00,,,0.00,WUHU216HW,2013-08-09 09:57:00,
2013-08-09 05:02:00,69.8,64.4,30.09,ESE,113,0.0,1.3,83,0.00,,,0.00,WUHU216HW,2013-08-09 10:02:00,
2013-08-09 05:07:00,70.0,64.5,30.09,ESE,113,0.0,1.3,83,0.00,,,0.00,WUHU216HW,2013-08-09 10:07:00,
2013-08-09 05:12:00,69.8,64.4,30.09,ESE,113,0.0,0.0,83,0.00,,,0.00,WUHU216HW,2013-08-09 10:12:00,
2013-08-09 05:17:00,69.8,64.4,30.09,ESE,113,0.0,0.0,83,0.00,,,0.00,WUHU216HW,2013-08-09 10:17:00,
2013-08-09 05:22:00,69.8,64.7,30.09,ESE,113,0.0,0.0,84,0.00,,,0.00,WUHU216HW,2013-08-09 10:22:00,
2013-08-09 05:27:00,69.8,64.7,30.09,ESE,113,0.0,0.0,84,0.00,,,0.00,WUHU216HW,2013-08-09 10:27:00,
2013-08-09 05:32:00,69.8,64.7,30.09,ESE,113,0.0,0.0,84,0.00,,,0.00,WUHU216HW,2013-08-09 10:32:00,
2013-08-09 05:37:00,69.7,64.5,30.09,ESE,113,1.1,1.1,84,0.00,,,0.00,WUHU216HW,2013-08-09 10:37:00,
2013-08-09 05:42:00,69.7,64.5,30.09,ESE,113,0.4,1.8,84,0.00,,,0.00,WUHU216HW,2013-08-09 10:42:00,
2013-08-09 05:47:00,69.7,64.5,30.09,North,0,0.0,1.8,84,0.00,,,0.00,WUHU216HW,2013-08-09 10:47:00,
2013-08-09 05:52:00,69.7,64.5,30.09,North,0,0.0,0.4,84,0.00,,,0.00,WUHU216HW,2013-08-09 10:52:00,
2013-08-09 05:57:00,69.7,64.5,30.09,ESE,113,2.0,2.0,84,0.00,,,0.00,WUHU216HW,2013-08-09 10:57:00,
2013-08-09 06:02:00,69.7,64.5,30.09,NNE,23,0.0,2.0,84,0.00,,,0.00,WUHU216HW,2013-08-09 11:02:00,
2013-08-09 06:07:00,69.7,64.5,30.09,NNW,338,0.2,2.0,84,0.00,,,0.00,WUHU216HW,2013-08-09 11:07:00,
2013-08-09 06:12:00,69.7,64.5,30.09,North,0,0.9,2.0,84,0.00,,,0.00,WUHU216HW,2013-08-09 11:12:00,
2013-08-09 06:17:00,69.7,64.5,30.09,North,0,0.4,2.5,84,0.00,,,0.00,WUHU216HW,2013-08-09 11:17:00,
2013-08-09 06:22:00,69.7,64.5,30.10,North,0,0.4,2.5,84,0.00,,,0.00,WUHU216HW,2013-08-09 11:22:00,
2013-08-09 06:27:00,69.7,64.5,30.09,NE,45,0.4,1.1,84,0.00,,,0.00,WUHU216HW,2013-08-09 11:27:00,
2013-08-09 06:32:00,69.7,64.5,30.09,SE,135,0.4,0.9,84,0.00,,,0.00,WUHU216HW,2013-08-09 11:32:00,
2013-08-09 06:37:00,69.7,64.5,30.09,NNE,23,0.0,2.0,84,0.00,,,0.00,WUHU216HW,2013-08-09 11:37:00,
2013-08-09 06:42:00,69.7,64.5,30.09,SE,135,1.1,2.0,84,0.00,,,0.00,WUHU216HW,2013-08-09 11:42:00,
2013-08-09 06:47:00,69.7,64.5,30.08,SE,135,0.2,1.6,84,0.00,,,0.00,WUHU216HW,2013-08-09 11:47:00,
2013-08-09 06:52:00,69.7,64.5,30.08,ESE,113,1.6,2.5,84,0.00,,,0.00,WUHU216HW,2013-08-09 11:52:00,
2013-08-09 06:57:00,69.7,64.5,30.08,NNW,338,0.7,2.5,84,0.00,,,0.00,WUHU216HW,2013-08-09 11:57:00,
2013-08-09 07:02:00,69.7,64.5,30.09,NE,45,0.4,1.6,84,0.00,,,0.00,WUHU216HW,2013-08-09 12:02:00,
2013-08-09 07:07:00,69.7,64.5,30.09,East,90,0.2,1.6,84,0.00,,,0.00,WUHU216HW,2013-08-09 12:07:00,
2013-08-09 07:12:00,69.7,64.5,30.09,ENE,68,1.3,2.0,84,0.00,,,0.00,WUHU216HW,2013-08-09 12:12:00,
2013-08-09 07:17:00,69.7,64.5,30.08,ENE,68,0.4,2.0,84,0.00,,,0.00,WUHU216HW,2013-08-09 12:17:00,
2013-08-09 07:22:00,69.7,64.5,30.08,NE,45,0.4,1.8,84,0.00,,,0.00,WUHU216HW,2013-08-09 12:22:00,
2013-08-09 07:27:00,69.8,64.7,30.08,SE,135,0.9,2.5,84,0.00,,,0.00,WUHU216HW,2013-08-09 12:27:00,
2013-08-09 07:32:00,69.7,64.5,30.09,ESE,113,1.3,3.4,84,0.00,,,0.00,WUHU216HW,2013-08-09 12:32:00,
2013-08-09 07:37:00,69.8,64.7,30.08,NE,45,0.7,3.4,84,0.00,,,0.00,WUHU216HW,2013-08-09 12:37:00,
2013-08-09 07:42:00,69.8,64.7,30.09,NNE,23,0.0,1.3,84,0.00,,,0.00,WUHU216HW,2013-08-09 12:42:00,
2013-08-09 07:47:00,69.8,64.7,30.08,ESE,113,0.9,1.8,84,0.00,,,0.00,WUHU216HW,2013-08-09 12:47:00,
2013-08-09 07:52:00,69.8,64.7,30.09,ENE,68,1.8,2.7,84,0.00,,,0.00,WUHU216HW,2013-08-09 12:52:00,
2013-08-09 07:57:00,69.8,64.7,30.09,ENE,68,0.4,2.7,84,0.00,,,0.00,WUHU216HW,2013-08-09 12:57:00,
2013-08-09 08:02:00,69.8,64.7,30.09,NNW,338,0.4,1.6,84,0.00,,,0.00,WUHU216HW,2013-08-09 13:02:00,
2013-08-09 08:07:00,69.8,64.7,30.10,NW,315,0.2,0.9,84,0.00,,,0.00,WUHU216HW,2013-08-09 13:07:00,
2013-08-09 08:12:00,69.8,64.7,30.11,NNW,338,0.0,0.9,84,0.00,,,0.00,WUHU216HW,2013-08-09 13:12:00,
2013-08-09 08:17:00,69.8,64.7,30.11,NNW,338,0.0,0.4,84,0.00,,,0.00,WUHU216HW,2013-08-09 13:17:00,
2013-08-09 08:22:00,69.8,64.7,30.11,NNE,23,0.0,0.7,84,0.00,,,0.00,WUHU216HW,2013-08-09 13:22:00,
2013-08-09 08:27:00,69.8,64.7,30.11,ESE,113,1.1,1.1,84,0.00,,,0.00,WUHU216HW,2013-08-09 13:27:00,
2013-08-09 08:32:00,69.8,64.7,30.11,ESE,113,1.1,1.1,84,0.00,,,0.00,WUHU216HW,2013-08-09 13:32:00,
2013-08-09 08:37:00,69.8,64.7,30.12,ESE,113,0.0,2.0,84,0.00,,,0.00,WUHU216HW,2013-08-09 13:37:00,
2013-08-09 08:42:00,69.8,64.7,30.12,SE,135,0.0,2.0,84,0.00,,,0.00,WUHU216HW,2013-08-09 13:42:00,
2013-08-09 08:47:00,69.8,64.7,30.12,East,90,0.9,0.9,84,0.00,,,0.00,WUHU216HW,2013-08-09 13:47:00,
2013-08-09 08:52:00,69.8,64.7,30.12,ESE,113,0.0,0.9,84,0.00,,,0.00,WUHU216HW,2013-08-09 13:52:00,
2013-08-09 08:57:00,69.8,64.7,30.12,ENE,68,0.0,0.4,84,0.00,,,0.00,WUHU216HW,2013-08-09 13:57:00,
2013-08-09 09:02:00,69.8,64.7,30.12,NE,45,0.0,0.2,84,0.00,,,0.00,WUHU216HW,2013-08-09 14:02:00,
2013-08-09 09:07:00,69.8,64.7,30.13,East,90,0.4,1.3,84,0.00,,,0.00,WUHU216HW,2013-08-09 14:07:00,
2013-08-09 09:12:00,70.0,64.9,30.13,ENE,68,0.0,1.3,84,0.00,,,0.00,WUHU216HW,2013-08-09 14:12:00,
2013-08-09 09:17:00,70.0,64.9,30.13,ESE,113,0.4,2.2,84,0.00,,,0.00,WUHU216HW,2013-08-09 14:17:00,
2013-08-09 09:22:00,69.8,64.7,30.13,SE,135,0.4,2.2,84,0.00,,,0.00,WUHU216HW,2013-08-09 14:22:00,
2013-08-09 09:27:00,70.0,65.3,30.13,East,90,0.0,0.9,85,0.00,,,0.00,WUHU216HW,2013-08-09 14:27:00,
2013-08-09 09:32:00,70.0,64.9,30.13,East,90,0.0,0.9,84,0.00,,,0.00,WUHU216HW,2013-08-09 14:32:00,
2013-08-09 09:37:00,70.2,65.4,30.14,East,90,0.0,1.8,85,0.00,,,0.00,WUHU216HW,2013-08-09 14:37:00,
2013-08-09 09:42:00,70.2,65.4,30.14,NE,45,0.2,1.8,85,0.00,,,0.00,WUHU216HW,2013-08-09 14:42:00,
2013-08-09 09:47:00,70.2,65.4,30.14,North,0,0.4,1.3,85,0.00,,,0.00,WUHU216HW,2013-08-09 14:47:00,
2013-08-09 09:52:00,70.2,65.4,30.14,North,0,0.4,1.8,85,0.00,,,0.00,WUHU216HW,2013-08-09 14:52:00,
2013-08-09 09:57:00,70.4,65.6,30.14,NE,45,0.0,1.8,85,0.00,,,0.00,WUHU216HW,2013-08-09 14:57:00,
2013-08-09 10:02:00,70.6,65.8,30.14,North,0,0.9,2.9,85,0.00,,,0.00,WUHU216HW,2013-08-09 15:02:00,
2013-08-09 10:07:00,70.6,65.8,30.14,NNE,23,0.9,2.9,85,0.00,,,0.00,WUHU216HW,2013-08-09 15:07:00,
2013-08-09 10:12:00,70.6,65.8,30.14,ENE,68,0.2,1.6,85,0.00,,,0.00,WUHU216HW,2013-08-09 15:12:00,
2013-08-09 10:17:00,70.7,66.0,30.14,SE,135,0.7,3.6,85,0.00,,,0.00,WUHU216HW,2013-08-09 15:17:00,
2013-08-09 10:22:00,70.9,66.2,30.14,NNW,338,1.1,3.6,85,0.00,,,0.00,WUHU216HW,2013-08-09 15:22:00,
2013-08-09 10:27:00,70.9,66.2,30.14,NNW,338,1.1,1.6,85,0.00,,,0.00,WUHU216HW,2013-08-09 15:27:00,
2013-08-09 10:32:00,70.9,65.8,30.14,East,90,0.2,1.8,84,0.00,,,0.00,WUHU216HW,2013-08-09 15:32:00,
2013-08-09 10:37:00,70.9,65.8,30.14,NNW,338,0.0,1.8,84,0.00,,,0.00,WUHU216HW,2013-08-09 15:37:00,
2013-08-09 10:42:00,71.1,66.0,30.14,NNW,338,0.4,1.8,84,0.00,,,0.00,WUHU216HW,2013-08-09 15:42:00,
2013-08-09 10:47:00,71.1,66.0,30.14,North,0,1.8,2.9,84,0.00,,,0.00,WUHU216HW,2013-08-09 15:47:00,
2013-08-09 10:52:00,71.1,66.0,30.14,NNE,23,0.7,3.1,84,0.00,,,0.00,WUHU216HW,2013-08-09 15:52:00,
2013-08-09 10:57:00,71.3,66.2,30.14,NE,45,1.6,3.1,84,0.00,,,0.00,WUHU216HW,2013-08-09 15:57:00,
2013-08-09 11:02:00,71.3,66.2,30.14,North,0,0.4,1.6,84,0.00,,,0.00,WUHU216HW,2013-08-09 16:02:00,
2013-08-09 11:07:00,71.3,66.2,30.14,North,0,0.4,1.6,84,0.00,,,0.00,WUHU216HW,2013-08-09 16:07:00,
2013-08-09 11:12:00,71.5,66.3,30.14,North,0,0.0,1.8,84,0.00,,,0.00,WUHU216HW,2013-08-09 16:12:00,
2013-08-09 11:17:00,71.6,66.5,30.14,WNW,293,0.0,1.8,84,0.00,,,0.00,WUHU216HW,2013-08-09 16:17:00,
2013-08-09 11:22:00,71.6,66.5,30.15,North,0,0.7,0.9,84,0.00,,,0.00,WUHU216HW,2013-08-09 16:22:00,
2013-08-09 11:27:00,71.6,66.5,30.15,NNE,23,1.6,2.5,84,0.00,,,0.00,WUHU216HW,2013-08-09 16:27:00,
2013-08-09 11:32:00,71.8,66.7,30.14,SE,135,2.0,2.5,84,0.00,,,0.00,WUHU216HW,2013-08-09 16:32:00,
2013-08-09 11:37:00,71.8,66.7,30.15,NW,315,0.4,2.0,84,0.00,,,0.00,WUHU216HW,2013-08-09 16:37:00,
2013-08-09 11:42:00,72.0,66.9,30.15,North,0,0.0,2.0,84,0.00,,,0.00,WUHU216HW,2013-08-09 16:42:00,
2013-08-09 11:47:00,72.0,66.9,30.15,East,90,1.6,2.5,84,0.00,,,0.00,WUHU216HW,2013-08-09 16:47:00,
2013-08-09 11:52:00,72.2,67.1,30.15,SE,135,1.1,2.5,84,0.00,,,0.00,WUHU216HW,2013-08-09 16:52:00,
2013-08-09 11:57:00,72.2,67.1,30.15,ESE,113,0.4,1.6,84,0.00,,,0.00,WUHU216HW,2013-08-09 16:57:00,
2013-08-09 12:02:00,72.4,67.2,30.15,East,90,0.7,1.1,84,0.00,,,0.00,WUHU216HW,2013-08-09 17:02:00,
2013-08-09 12:07:00,72.4,67.2,30.15,NNE,23,0.7,2.2,84,0.00,,,0.00,WUHU216HW,2013-08-09 17:07:00,
2013-08-09 12:12:00,72.4,67.2,30.15,NNE,23,0.0,2.2,84,0.00,,,0.00,WUHU216HW,2013-08-09 17:12:00,
2013-08-09 12:17:00,72.4,66.9,30.15,North,0,0.0,1.1,83,0.00,,,0.00,WUHU216HW,2013-08-09 17:17:00,
2013-08-09 12:22:00,72.5,67.1,30.15,NNE,23,0.0,1.3,83,0.00,,,0.00,WUHU216HW,2013-08-09 17:22:00,
2013-08-09 12:27:00,72.7,67.2,30.15,ESE,113,0.0,1.8,83,0.00,,,0.00,WUHU216HW,2013-08-09 17:27:00,
2013-08-09 12:32:00,72.7,67.2,30.15,ENE,68,1.1,1.8,83,0.00,,,0.00,WUHU216HW,2013-08-09 17:32:00,
2013-08-09 12:37:00,72.7,67.2,30.15,North,0,1.1,1.6,83,0.00,,,0.00,WUHU216HW,2013-08-09 17:37:00,
2013-08-09 12:42:00,72.9,67.4,30.15,East,90,0.7,2.2,83,0.00,,,0.00,WUHU216HW,2013-08-09 17:42:00,
2013-08-09 12:47:00,73.1,68.0,30.16,NE,45,0.0,2.2,84,0.00,,,0.00,WUHU216HW,2013-08-09 17:47:00,
2013-08-09 12:52:00,73.1,68.0,30.15,East,90,1.1,3.1,84,0.00,,,0.00,WUHU216HW,2013-08-09 17:52:00,
2013-08-09 12:57:00,73.1,68.0,30.15,NE,45,0.4,3.1,84,0.00,,,0.00,WUHU216HW,2013-08-09 17:57:00,
2013-08-09 13:02:00,73.1,68.0,30.16,NNE,23,0.9,1.8,84,0.00,,,0.00,WUHU216HW,2013-08-09 18:02:00,
2013-08-09 13:07:00,73.3,68.1,30.16,NNW,338,0.7,1.8,84,0.00,,,0.00,WUHU216HW,2013-08-09 18:07:00,
2013-08-09 13:12:00,73.3,68.1,30.15,North,0,0.4,1.8,84,0.00,,,0.00,WUHU216HW,2013-08-09 18:12:00,
2013-08-09 13:17:00,73.4,68.3,30.16,NE,45,1.1,2.0,84,0.00,,,0.00,WUHU216HW,2013-08-09 18:17:00,
2013-08-09 13:22:00,73.4,68.3,30.15,NNE,23,0.9,2.0,84,0.00,,,0.00,WUHU216HW,2013-08-09 18:22:00,
2013-08-09 13:27:00,73.4,68.3,30.15,North,0,0.2,3.1,84,0.00,,,0.00,WUHU216HW,2013-08-09 18:27:00,
2013-08-09 13:32:00,73.6,68.5,30.15,North,0,0.4,3.1,84,0.00,,,0.00,WUHU216HW,2013-08-09 18:32:00,
2013-08-09 13:37:00,73.6,68.5,30.15,North,0,1.1,2.7,84,0.00,,,0.00,WUHU216HW,2013-08-09 18:37:00,
2013-08-09 13:42:00,73.6,68.5,30.16,SE,135,1.1,2.7,84,0.00,,,0.00,WUHU216HW,2013-08-09 18:42:00,
2013-08-09 13:47:00,73.8,68.7,30.16,ENE,68,1.1,2.5,84,0.00,,,0.00,WUHU216HW,2013-08-09 18:47:00,
2013-08-09 13:52:00,73.8,68.7,30.16,NW,315,2.0,2.5,84,0.00,,,0.00,WUHU216HW,2013-08-09 18:52:00,
2013-08-09 13:57:00,73.8,68.7,30.16,NE,45,0.4,2.5,84,0.00,,,0.00,WUHU216HW,2013-08-09 18:57:00,
2013-08-09 14:02:00,74.0,68.9,30.16,East,90,1.1,2.5,84,0.00,,,0.00,WUHU216HW,2013-08-09 19:02:00,
2013-08-09 14:07:00,73.8,68.7,30.15,North,0,0.0,2.2,84,0.00,,,0.00,WUHU216HW,2013-08-09 19:07:00,
2013-08-09 14:12:00,74.0,68.9,30.16,NNW,338,0.2,2.2,84,0.00,,,0.00,WUHU216HW,2013-08-09 19:12:00,
2013-08-09 14:17:00,74.0,68.9,30.16,NNE,23,0.2,1.3,84,0.00,,,0.00,WUHU216HW,2013-08-09 19:17:00,
2013-08-09 14:22:00,74.0,68.9,30.16,NNW,338,0.4,1.8,84,0.00,,,0.00,WUHU216HW,2013-08-09 19:22:00,
2013-08-09 14:27:00,74.0,68.9,30.16,North,0,0.9,1.8,84,0.00,,,0.00,WUHU216HW,2013-08-09 19:27:00,
2013-08-09 14:32:00,73.8,68.7,30.16,NNW,338,0.4,4.7,84,0.00,,,0.00,WUHU216HW,2013-08-09 19:32:00,
2013-08-09 14:37:00,73.8,68.3,30.16,NNE,23,0.0,4.7,83,0.00,,,0.00,WUHU216HW,2013-08-09 19:37:00,
2013-08-09 14:42:00,73.8,68.7,30.16,North,0,1.1,1.8,84,0.01,,,0.01,WUHU216HW,2013-08-09 19:42:00,
2013-08-09 14:47:00,73.8,68.7,30.16,North,0,0.9,1.1,84,0.01,,,0.01,WUHU216HW,2013-08-09 19:47:00,
2013-08-09 14:52:00,73.8,68.7,30.17,NE,45,0.0,1.3,84,0.01,,,0.01,WUHU216HW,2013-08-09 19:52:00,
2013-08-09 14:57:00,73.8,68.7,30.17,North,0,0.0,1.3,84,0.01,,,0.01,WUHU216HW,2013-08-09 19:57:00,
2013-08-09 15:02:00,73.8,69.0,30.17,North,0,0.0,0.7,85,0.01,,,0.01,WUHU216HW,2013-08-09 20:02:00,
2013-08-09 15:07:00,74.0,69.2,30.17,NW,315,0.4,0.4,85,0.02,,,0.02,WUHU216HW,2013-08-09 20:07:00,
2013-08-09 15:12:00,73.8,69.0,30.17,NNW,338,0.0,1.1,85,0.02,,,0.02,WUHU216HW,2013-08-09 20:12:00,
2013-08-09 15:17:00,73.8,69.0,30.17,NNE,23,0.0,1.3,85,0.03,,,0.03,WUHU216HW,2013-08-09 20:17:00,
2013-08-09 15:22:00,73.8,69.0,30.17,NNE,23,0.0,1.3,85,0.03,,,0.03,WUHU216HW,2013-08-09 20:22:00,
2013-08-09 15:27:00,73.8,69.0,30.17,North,0,0.4,0.9,85,0.03,,,0.03,WUHU216HW,2013-08-09 20:27:00,
2013-08-09 15:32:00,73.8,69.0,30.16,North,0,0.0,0.9,85,0.03,,,0.03,WUHU216HW,2013-08-09 20:32:00,
2013-08-09 15:37:00,73.8,69.4,30.17,East,90,1.1,1.1,86,0.04,,,0.04,WUHU216HW,2013-08-09 20:37:00,
2013-08-09 15:42:00,73.6,69.2,30.16,SE,135,0.0,1.1,86,0.03,,,0.04,WUHU216HW,2013-08-09 20:42:00,
2013-08-09 15:47:00,73.6,69.2,30.16,NE,45,0.4,1.6,86,0.03,,,0.04,WUHU216HW,2013-08-09 20:47:00,
2013-08-09 15:52:00,73.6,69.2,30.16,SE,135,0.9,1.8,86,0.04,,,0.05,WUHU216HW,2013-08-09 20:52:00,
2013-08-09 15:57:00,73.4,69.0,30.16,SE,135,1.1,2.9,86,0.04,,,0.05,WUHU216HW,2013-08-09 20:57:00,
2013-08-09 16:02:00,73.3,68.5,30.16,NNE,23,0.0,2.9,85,0.04,,,0.05,WUHU216HW,2013-08-09 21:02:00,
2013-08-09 16:07:00,73.3,68.5,30.16,ESE,113,0.0,1.6,85,0.03,,,0.05,WUHU216HW,2013-08-09 21:07:00,
2013-08-09 16:12:00,73.1,68.3,30.16,NE,45,0.7,1.8,85,0.02,,,0.05,WUHU216HW,2013-08-09 21:12:00,
2013-08-09 16:17:00,73.1,68.7,30.16,NNE,23,0.0,1.8,86,0.02,,,0.05,WUHU216HW,2013-08-09 21:17:00,
2013-08-09 16:22:00,73.1,68.7,30.16,NW,315,0.4,1.8,86,0.02,,,0.05,WUHU216HW,2013-08-09 21:22:00,
2013-08-09 16:27:00,73.1,68.7,30.16,North,0,1.1,1.8,86,0.02,,,0.05,WUHU216HW,2013-08-09 21:27:00,
2013-08-09 16:32:00,73.1,68.7,30.16,North,0,0.4,1.8,86,0.01,,,0.05,WUHU216HW,2013-08-09 21:32:00,
2013-08-09 16:37:00,73.1,68.3,30.16,ESE,113,1.1,1.8,85,0.01,,,0.05,WUHU216HW,2013-08-09 21:37:00,
2013-08-09 16:42:00,73.1,68.3,30.16,NE,45,1.8,1.8,85,0.01,,,0.05,WUHU216HW,2013-08-09 21:42:00,
2013-08-09 16:47:00,73.1,68.3,30.16,ENE,68,0.0,1.8,85,0.00,,,0.05,WUHU216HW,2013-08-09 21:47:00,
2013-08-09 16:52:00,73.1,68.3,30.16,ENE,68,2.0,2.0,85,0.00,,,0.05,WUHU216HW,2013-08-09 21:52:00,
2013-08-09 16:58:00,73.3,68.5,30.16,North,0,0.0,2.0,85,0.00,,,0.05,WUHU216HW,2013-08-09 21:58:00,
2013-08-09 17:03:00,73.3,68.1,30.16,ENE,68,0.0,2.0,84,0.00,,,0.05,WUHU216HW,2013-08-09 22:03:00,
2013-08-09 17:08:00,73.3,68.1,30.16,NE,45,0.4,1.1,84,0.00,,,0.05,WUHU216HW,2013-08-09 22:08:00,
2013-08-09 17:13:00,73.3,67.8,30.16,North,0,0.0,2.0,83,0.00,,,0.05,WUHU216HW,2013-08-09 22:13:00,
2013-08-09 17:18:00,73.3,67.8,30.16,East,90,0.0,2.0,83,0.00,,,0.05,WUHU216HW,2013-08-09 22:18:00,
2013-08-09 17:23:00,73.3,67.8,30.16,East,90,0.0,1.3,83,0.00,,,0.05,WUHU216HW,2013-08-09 22:23:00,
2013-08-09 17:28:00,73.1,67.6,30.16,NNW,338,0.4,3.1,83,0.00,,,0.05,WUHU216HW,2013-08-09 22:28:00,
2013-08-09 17:33:00,73.1,67.6,30.16,NE,45,0.2,3.1,83,0.00,,,0.05,WUHU216HW,2013-08-09 22:33:00,
2013-08-09 17:38:00,73.3,67.8,30.15,East,90,0.4,1.1,83,0.00,,,0.05,WUHU216HW,2013-08-09 22:38:00,
2013-08-09 17:43:00,73.3,67.8,30.15,ESE,113,1.3,1.3,83,0.00,,,0.05,WUHU216HW,2013-08-09 22:43:00,
2013-08-09 17:48:00,73.3,68.1,30.15,East,90,1.1,2.0,84,0.00,,,0.05,WUHU216HW,2013-08-09 22:48:00,
2013-08-09 17:53:00,73.3,68.1,30.15,ESE,113,0.0,2.0,84,0.00,,,0.05,WUHU216HW,2013-08-09 22:53:00,
2013-08-09 17:58:00,73.3,68.1,30.15,ENE,68,0.0,2.5,84,0.00,,,0.05,WUHU216HW,2013-08-09 22:58:00,
2013-08-09 18:03:00,73.3,67.8,30.15,ENE,68,0.0,2.5,83,0.00,,,0.05,WUHU216HW,2013-08-09 23:03:00,
2013-08-09 18:08:00,73.3,67.8,30.14,ESE,113,1.3,2.2,83,0.00,,,0.05,WUHU216HW,2013-08-09 23:08:00,
2013-08-09 18:13:00,73.3,67.8,30.15,ESE,113,0.7,4.0,83,0.00,,,0.05,WUHU216HW,2013-08-09 23:13:00,
2013-08-09 18:18:00,73.1,67.6,30.14,ESE,113,1.1,4.0,83,0.00,,,0.05,WUHU216HW,2013-08-09 23:18:00,
2013-08-09 18:23:00,73.1,67.6,30.14,ESE,113,0.0,3.4,83,0.00,,,0.05,WUHU216HW,2013-08-09 23:23:00,
2013-08-09 18:28:00,73.1,67.6,30.14,ESE,113,0.2,1.8,83,0.00,,,0.05,WUHU216HW,2013-08-09 23:28:00,
2013-08-09 18:33:00,73.1,67.6,30.14,SE,135,0.7,1.8,83,0.00,,,0.05,WUHU216HW,2013-08-09 23:33:00,
2013-08-09 18:38:00,73.1,67.6,30.14,NE,45,0.4,1.1,83,0.00,,,0.05,WUHU216HW,2013-08-09 23:38:00,
2013-08-09 18:43:00,72.9,67.4,30.14,ENE,68,0.0,1.1,83,0.00,,,0.05,WUHU216HW,2013-08-09 23:43:00,
2013-08-09 18:48:00,72.9,67.4,30.14,NE,45,0.7,0.7,83,0.00,,,0.05,WUHU216HW,2013-08-09 23:48:00,
2013-08-09 18:53:00,72.7,67.2,30.14,NE,45,0.0,0.7,83,0.00,,,0.05,WUHU216HW,2013-08-09 23:53:00,
2013-08-09 18:58:00,72.7,67.2,30.14,NE,45,0.0,0.7,83,0.00,,,0.05,WUHU216HW,2013-08-09 23:58:00,
2013-08-09 19:03:00,72.7,67.0,30.14,NNE,23,0.0,0.0,82,0.00,,,0.05,WUHU216HW,2013-08-10 00:03:00,
2013-08-09 19:08:00,72.5,66.8,30.15,NNE,23,0.0,0.0,82,0.00,,,0.05,WUHU216HW,2013-08-10 00:08:00,
2013-08-09 19:13:00,72.5,66.8,30.15,NNE,23,0.0,0.0,82,0.00,,,0.05,WUHU216HW,2013-08-10 00:13:00,
2013-08-09 19:18:00,72.5,66.8,30.15,NNE,23,0.0,0.0,82,0.00,,,0.05,WUHU216HW,2013-08-10 00:18:00,
2013-08-09 19:23:00,72.5,66.8,30.15,NNE,23,0.0,0.0,82,0.00,,,0.05,WUHU216HW,2013-08-10 00:23:00,
2013-08-09 19:28:00,72.4,66.9,30.15,NNE,23,0.0,0.0,83,0.00,,,0.05,WUHU216HW,2013-08-10 00:28:00,
2013-08-09 19:33:00,72.4,66.9,30.15,NNE,23,0.0,0.0,83,0.00,,,0.05,WUHU216HW,2013-08-10 00:33:00,
2013-08-09 19:38:00,72.4,66.9,30.15,NNE,23,0.0,0.0,83,0.00,,,0.05,WUHU216HW,2013-08-10 00:38:00,
2013-08-09 19:43:00,72.4,66.9,30.15,NNE,23,0.0,0.0,83,0.00,,,0.05,WUHU216HW,2013-08-10 00:43:00,
2013-08-09 19:48:00,72.4,66.9,30.15,NNE,23,0.0,0.0,83,0.00,,,0.05,WUHU216HW,2013-08-10 00:48:00,
2013-08-09 19:53:00,72.4,66.9,30.15,NNE,23,0.0,0.0,83,0.00,,,0.05,WUHU216HW,2013-08-10 00:53:00,
2013-08-09 19:58:00,72.2,66.7,30.15,NNE,23,0.0,0.0,83,0.00,,,0.05,WUHU216HW,2013-08-10 00:58:00,
2013-08-09 20:03:00,72.0,66.5,30.15,NNE,23,0.0,0.0,83,0.00,,,0.05,WUHU216HW,2013-08-10 01:03:00,
2013-08-09 20:08:00,72.0,66.9,30.15,NNE,23,0.0,0.0,84,0.00,,,0.05,WUHU216HW,2013-08-10 01:08:00,
2013-08-09 20:13:00,71.8,66.7,30.15,ESE,113,0.4,0.4,84,0.00,,,0.05,WUHU216HW,2013-08-10 01:13:00,
2013-08-09 20:18:00,71.6,66.5,30.15,ENE,68,0.2,1.1,84,0.00,,,0.05,WUHU216HW,2013-08-10 01:18:00,
2013-08-09 20:23:00,71.6,66.5,30.14,ENE,68,0.0,1.1,84,0.00,,,0.05,WUHU216HW,2013-08-10 01:23:00,
2013-08-09 20:28:00,71.5,66.3,30.15,ENE,68,0.0,0.0,84,0.00,,,0.05,WUHU216HW,2013-08-10 01:28:00,
2013-08-09 20:33:00,71.5,66.3,30.15,ENE,68,0.0,0.0,84,0.00,,,0.05,WUHU216HW,2013-08-10 01:33:00,
2013-08-09 20:38:00,71.3,66.2,30.15,NE,45,0.0,0.0,84,0.00,,,0.05,WUHU216HW,2013-08-10 01:38:00,
2013-08-09 20:43:00,71.3,66.2,30.16,North,0,0.4,0.7,84,0.00,,,0.05,WUHU216HW,2013-08-10 01:43:00,
2013-08-09 20:48:00,71.3,66.2,30.16,North,0,0.4,0.7,84,0.00,,,0.05,WUHU216HW,2013-08-10 01:48:00,
2013-08-09 20:53:00,71.1,66.0,30.17,North,0,0.0,0.7,84,0.00,,,0.05,WUHU216HW,2013-08-10 01:53:00,
2013-08-09 20:58:00,71.1,66.0,30.17,North,0,0.0,0.4,84,0.00,,,0.05,WUHU216HW,2013-08-10 01:58:00,
2013-08-09 21:03:00,71.1,66.0,30.17,North,0,0.0,0.0,84,0.00,,,0.05,WUHU216HW,2013-08-10 02:03:00,
2013-08-09 21:08:00,70.9,65.8,30.17,North,0,0.0,0.0,84,0.00,,,0.05,WUHU216HW,2013-08-10 02:08:00,
2013-08-09 21:13:00,70.9,65.8,30.18,North,0,0.0,0.0,84,0.00,,,0.05,WUHU216HW,2013-08-10 02:13:00,
2013-08-09 21:18:00,70.7,65.6,30.18,North,0,0.0,0.0,84,0.00,,,0.05,WUHU216HW,2013-08-10 02:18:00,
2013-08-09 21:23:00,70.6,65.4,30.18,North,0,0.0,0.0,84,0.00,,,0.05,WUHU216HW,2013-08-10 02:23:00,
2013-08-09 21:28:00,70.6,65.4,30.18,North,0,0.0,0.0,84,0.00,,,0.05,WUHU216HW,2013-08-10 02:28:00,
2013-08-09 21:33:00,70.4,65.3,30.18,North,0,0.0,0.0,84,0.00,,,0.05,WUHU216HW,2013-08-10 02:33:00,
2013-08-09 21:38:00,70.4,65.6,30.18,North,0,0.0,0.0,85,0.00,,,0.05,WUHU216HW,2013-08-10 02:38:00,
2013-08-09 21:43:00,70.2,65.4,30.18,North,0,0.0,0.0,85,0.00,,,0.05,WUHU216HW,2013-08-10 02:43:00,
2013-08-09 21:48:00,70.2,65.4,30.18,North,0,0.0,0.0,85,0.00,,,0.05,WUHU216HW,2013-08-10 02:48:00,
2013-08-09 21:53:00,70.0,65.3,30.18,North,0,0.0,0.0,85,0.00,,,0.05,WUHU216HW,2013-08-10 02:53:00,
2013-08-09 21:58:00,70.0,65.3,30.19,North,0,0.0,0.0,85,0.00,,,0.05,WUHU216HW,2013-08-10 02:58:00,
2013-08-09 22:03:00,69.8,65.4,30.19,North,0,0.0,0.0,86,0.00,,,0.05,WUHU216HW,2013-08-10 03:03:00,
2013-08-09 22:08:00,69.8,65.4,30.19,North,0,0.0,0.0,86,0.00,,,0.05,WUHU216HW,2013-08-10 03:08:00,
2013-08-09 22:13:00,69.8,65.4,30.19,North,0,0.0,0.0,86,0.00,,,0.05,WUHU216HW,2013-08-10 03:13:00,
2013-08-09 22:18:00,69.7,65.3,30.19,North,0,0.0,0.0,86,0.00,,,0.05,WUHU216HW,2013-08-10 03:18:00,
2013-08-09 22:23:00,69.7,65.3,30.19,North,0,0.0,0.0,86,0.00,,,0.05,WUHU216HW,2013-08-10 03:23:00,
2013-08-09 22:28:00,69.5,65.1,30.19,North,0,0.0,0.0,86,0.00,,,0.05,WUHU216HW,2013-08-10 03:28:00,
2013-08-09 22:33:00,69.5,65.1,30.19,North,0,0.0,0.0,86,0.00,,,0.05,WUHU216HW,2013-08-10 03:33:00,
2013-08-09 22:38:00,69.5,65.1,30.19,North,0,0.0,0.0,86,0.00,,,0.05,WUHU216HW,2013-08-10 03:38:00,
2013-08-09 22:43:00,69.3,64.9,30.19,North,0,0.0,0.0,86,0.00,,,0.05,WUHU216HW,2013-08-10 03:43:00,
2013-08-09 22:48:00,69.3,64.9,30.19,North,0,0.0,0.0,86,0.00,,,0.05,WUHU216HW,2013-08-10 03:48:00,
2013-08-09 22:53:00,69.1,64.7,30.19,North,0,0.0,0.0,86,0.00,,,0.05,WUHU216HW,2013-08-10 03:53:00,
2013-08-09 22:58:00,69.1,64.7,30.20,North,0,0.0,0.0,86,0.00,,,0.05,WUHU216HW,2013-08-10 03:58:00,
2013-08-09 23:01:00,69.1,65.1,30.19,North,0,0.0,0.0,87,0.00,,,0.05,WUHU216HW,2013-08-10 04:01:00,
2013-08-09 23:06:00,69.1,65.1,30.20,North,0,0.0,0.0,87,0.00,,,0.05,WUHU216HW,2013-08-10 04:06:00,
2013-08-09 23:11:00,69.1,65.1,30.20,North,0,0.4,0.4,87,0.00,,,0.05,WUHU216HW,2013-08-10 04:11:00,
2013-08-09 23:16:00,69.1,65.1,30.20,NNW,338,0.7,1.3,87,0.00,,,0.05,WUHU216HW,2013-08-10 04:16:00,
2013-08-09 23:21:00,68.9,64.9,30.20,North,0,0.0,1.8,87,0.00,,,0.05,WUHU216HW,2013-08-10 04:21:00,
2013-08-09 23:26:00,69.1,65.1,30.20,North,0,0.0,1.8,87,0.00,,,0.05,WUHU216HW,2013-08-10 04:26:00,
2013-08-09 23:31:00,69.1,65.1,30.20,North,0,0.0,0.0,87,0.00,,,0.05,WUHU216HW,2013-08-10 04:31:00,
2013-08-09 23:36:00,68.9,64.9,30.20,North,0,0.0,0.0,87,0.00,,,0.05,WUHU216HW,2013-08-10 04:36:00,
2013-08-09 23:41:00,68.8,64.7,30.20,North,0,0.0,0.0,87,0.00,,,0.05,WUHU216HW,2013-08-10 04:41:00,
2013-08-09 23:46:00,68.8,64.7,30.20,North,0,0.0,0.0,87,0.00,,,0.05,WUHU216HW,2013-08-10 04:46:00,
2013-08-09 23:51:00,68.8,64.7,30.20,North,0,0.0,0.0,87,0.00,,,0.05,WUHU216HW,2013-08-10 04:51:00,
2013-08-09 23:56:00,68.8,64.7,30.21,North,0,0.0,0.0,87,0.00,,,0.05,WUHU216HW,2013-08-10 04:56:00,